Location: Kergonan
(48.2337°N, 4.5518°W)
Time: 09:54:51
(UTC+00:00)

Cosmos 2181 Rocket - Pass Details

Date: 18 January 2020
Orbit: 953 x 1014 km, 82.9° (Epoch: 18 February)

Event Time Altitude Azimuth Distance (km) Brightness Sun altitude
Rises 06:16:35 0° 181° (S) 3,629 7.1 -17.2°
Reaches altitude 10° 06:19:03 10° 180° (S) 2,694 6.5 -16.8°
Maximum altitude 06:25:12 77° 96° (E) 1,003 4.2 -15.8°
Drops below altitude 10° 06:31:30 10° 12° (NNE) 2,753 6.3 -14.7°
Sets 06:34:03 0° 11° (N) 3,715 7.0 -14.3°
